Flag Weather past 2 weeks in Garden Grove, California, U.S.A.

Now
66 °F

Clear.


Feels Like: 66 °F
Forecast: 54 / 76 °F
Wind: 7 mph from Southwest

Location: Fullerton Municipal Airport

Current Time: Nov 22, 2014 at 5:25:52 PM

Latest Report: Nov 22, 2014 at 4:53 PM


Visibility: 10 mi

Pressure: 30.00 "Hg

Humidity: 73%

Dew point: 57 °F

Location of Garden GroveLocation

Historic Weather in Garden Grove — Graph

°F

Garden Grove temperature yesterday

Maximum temperature yesterday: 72 °F (at 12:53 PM)
Minimum temperature yesterday: 54 °F (at 6:53 AM)
Average temperature yesterday: 63 °F

Past Weeks' High & Low Weather Summary

 TemperatureHumidityPressure
High91 °F (Nov 8, 1:53 PM)97% (Nov 9, 5:53 AM)30.16 "Hg (Nov 9, 5:53 AM)
Low53 °F (Nov 18, 4:53 AM)3% (Nov 16, 2:53 PM)29.80 "Hg (Nov 9, 3:53 PM)
Average65 °F56%30.00 "Hg
* Reported Nov 7 3:53 PM — Nov 22 3:53 PM, Garden Grove, Weather by CustomWeather, © 2014

Note: Actual official high and low records may vary slightly from our data, if they occured in-between our weather recording intervals... More about our weather records

Advertising

Garden Grove weather history for previous 24 hours

 ConditionsComfort  
Time TempWeatherWind HumidityBarometerVisibility
3:53 PM
Nov 22
69 °FSunny.6 mph63%30.00 "Hg10 mi
2:53 PM70 °FSunny.7 mph55%30.01 "Hg10 mi
1:53 PM72 °FSunny.7 mph48%30.01 "Hg10 mi
12:53 PM73 °FSunny.6 mph48%30.03 "Hg10 mi
11:53 AM71 °FSunny.No wind49%30.05 "Hg10 mi
10:53 AM69 °FSunny.3 mph59%30.09 "Hg10 mi
9:53 AM67 °FSunny.3 mph59%30.10 "Hg10 mi
8:53 AM63 °FSunny.3 mph56%30.10 "Hg10 mi
7:53 AM58 °FSunny.5 mph67%30.09 "Hg10 mi
6:53 AM54 °FSunny.5 mph74%30.07 "Hg10 mi
5:53 AM53 °FClear.3 mph77%30.06 "Hg10 mi
4:53 AM54 °FClear.6 mph72%30.06 "Hg10 mi
3:53 AM55 °FClear.3 mph69%30.05 "Hg10 mi
2:53 AM56 °FClear.6 mph67%30.06 "Hg10 mi
1:53 AM55 °FClear.5 mph69%30.06 "Hg10 mi
12:53 AM56 °FClear.3 mph70%30.05 "Hg10 mi
11:53 PM
Nov 21
57 °FClear.3 mph67%30.05 "Hg10 mi
10:53 PM57 °FClear.5 mph69%30.03 "Hg10 mi
9:53 PM58 °FClear.5 mph70%30.03 "Hg10 mi
8:53 PM61 °FClear.No wind60%30.02 "Hg10 mi
7:53 PM61 °FClear.No wind60%30.01 "Hg10 mi
6:53 PM63 °FClear.No wind54%29.98 "Hg10 mi
5:53 PM66 °FClear.No wind47%29.97 "Hg10 mi
Weather by CustomWeather, © 2014

See weather overviewHow to use our weather pages